Home > Weather > Holon > Past weeks

Flag for Israel Past Weather in Holon, Israel — Yesterday and Last 2 Weeks

Now
84 °F

Scattered clouds.


Feels Like: 90 °F
Forecast: 82 / 86 °F
Wind: 7 mph from Northwest

Location: Dov Airport

Current Time: Aug 29, 2016 at 10:36:20 AM

Latest Report: Aug 29, 2016 at 9:50 AM


Visibility: N/A

Pressure: 29.89 "Hg

Humidity: 66%

Dew Point: 72 °F

Location of HolonLocation

Past Weather in Holon — Graph

°F

Holon Temperature Yesterday

Maximum temperature yesterday: 88 °F (at 12:50 PM)
Minimum temperature yesterday: 81 °F (at 4:50 AM)
Average temperature yesterday: 84 °F

High & Low Weather Summary for the Past Weeks

 TemperatureHumidityPressure
High88 °F (Aug 14, 10:50 AM)83% (Aug 20, 6:00 AM)29.92 "Hg (Aug 20, 6:00 AM)
Low77 °F (Aug 17, 5:50 AM)52% (Aug 16, 10:50 AM)29.71 "Hg (Aug 18, 5:50 AM)
Average84 °F66%29.81 "Hg
* Reported Aug 14 8:50 AM — Aug 29 8:50 AM, Holon, Weather by CustomWeather, © 2016

Note: Actual official high and low records may vary slightly from our data, if they occured in-between our weather recording intervals... More about our weather records

Advertising

Holon Weather History for the Previous 24 Hours

Scroll right to see more
 ConditionsComfort  
Time TempWeatherWind HumidityBarometerVisibility
8:50 AM
Mon, Aug 29
82 °FScattered clouds.6 mph66%29.89 "HgN/A
7:50 AM82 °FPassing clouds.2 mph70%29.86 "HgN/A
6:50 AM79 °FPassing clouds.2 mph74%29.86 "HgN/A
5:50 AM79 °FPassing clouds.3 mph74%29.86 "HgN/A
4:50 AM81 °FPassing clouds.5 mph70%29.86 "HgN/A
10:50 PM
Sun, Aug 28
82 °FPassing clouds.7 mph70%29.92 "HgN/A
9:50 PM82 °FPassing clouds.9 mph70%29.92 "HgN/A
7:50 PM82 °FScattered clouds.10 mph70%29.89 "HgN/A
6:50 PM84 °FPartly sunny.13 mph66%29.89 "HgN/A
5:50 PM84 °FScattered clouds.14 mph66%29.89 "HgN/A
3:50 PM88 °FScattered clouds.13 mph59%29.89 "HgN/A
2:50 PM88 °FPassing clouds.13 mph59%29.89 "HgN/A
1:50 PM88 °FPassing clouds.13 mph59%29.92 "HgN/A
12:50 PM88 °FSunny.10 mph55%29.92 "Hg10 mi
11:50 AM86 °FSunny.7 mph62%29.92 "Hg10 mi
10:50 AM86 °FPassing clouds.7 mph59%29.92 "HgN/A
Weather by CustomWeather, © 2016

See weather overviewHow to use our weather pages